Albert Lea, MN

8:26 PM CDT on July 24, 2017 (GMT -0500)
Albert Lea Municipal

Weather History for KAEL - April, 2014

Change the Weather History Date:

Tuesday, April 8, 2014

  Actual Average Record
Temperature  
Mean Temperature 43 °F -  
Max Temperature 51 °F 50 °F 73 °F (2017)
Min Temperature 35 °F 32 °F 6 °F (1997)
Degree Days  
Heating Degree Days 22    
Moisture  
Dew Point 32 °F    
Average Humidity 68    
Maximum Humidity 93    
Minimum Humidity 44    
Precipitation  
Precipitation 0.00 in - - ()
Sea Level Pressure  
Sea Level Pressure 29.92 in    
Wind  
Wind Speed 9 mph (NW)    
Max Wind Speed 16 mph    
Max Gust Speed 24 mph    
Visibility 10 miles    
Events      
Averages and records for this station are not official NWS values.
T = Trace of Precipitation, MM = Missing Value Source: NWS Daily Summary

Daily Weather History Graph

Daily Weather History Graph

Search for Another Location

Airport or City:

Trip Planner

Search our weather history database for the weather conditions in past years. The results will help you decide how hot, cold, wet, or windy it might be!

Date:

Astronomy

Apr. 08, 2014 Rise Set
Actual Time 6:42 AM CDT 7:48 PM CDT
Civil Twilight 6:13 AM CDT 8:18 PM CDT
Nautical Twilight 5:38 AM CDT 8:53 PM CDT
Astronomical Twilight 5:01 AM CDT 9:30 PM CDT
Moon 1:32 PM CDT (4/8) 3:07 AM CDT (4/8)
Length of Visible Light 14h 04m
Length of Day
13h 06m
Waxing Gibbous, 63% of the Moon is Illuminated
Apr 8
Waxing Gibbous
Apr 15
Full
Apr 22
Last Quarter
Apr 29
New
May 6
First Quarter

Hourly Weather History & Observations

Time (CDT) Temp. Windchill Dew Point Humidity Pressure Visibility Wind Dir Wind Speed Gust Speed Precip Events Conditions
12:09 AM 44.6 °F 40.2 °F 32.0 °F 61% 29.82 in 10.0 mi NW 8.1 mph - N/A   Clear
12:29 AM 44.6 °F 40.2 °F 33.8 °F 66% 29.82 in 10.0 mi NW 8.1 mph - N/A   Clear
12:49 AM 42.8 °F 38.6 °F 33.8 °F 70% 29.82 in 10.0 mi NW 6.9 mph - N/A   Clear
1:09 AM 42.8 °F 37.5 °F 33.8 °F 70% 29.82 in 10.0 mi NW 9.2 mph - N/A   Clear
1:29 AM 42.8 °F 37.5 °F 33.8 °F 70% 29.81 in 10.0 mi NNW 9.2 mph - N/A   Clear
1:49 AM 42.8 °F 38.0 °F 33.8 °F 70% 29.81 in 10.0 mi NW 8.1 mph - N/A   Clear
2:09 AM 41.0 °F 36.4 °F 33.8 °F 76% 29.81 in 10.0 mi NW 6.9 mph - N/A   Clear
2:29 AM 39.2 °F 33.6 °F 33.8 °F 81% 29.81 in 10.0 mi NW 8.1 mph - N/A   Clear
2:49 AM 39.2 °F 33.6 °F 33.8 °F 81% 29.81 in 10.0 mi NW 8.1 mph - N/A   Clear
3:09 AM 39.2 °F 34.2 °F 33.8 °F 81% 29.82 in 10.0 mi WNW 6.9 mph - N/A   Clear
3:29 AM 37.4 °F 32.8 °F 33.8 °F 87% 29.82 in 10.0 mi WNW 5.8 mph - N/A   Clear
3:50 AM 37.4 °F 33.8 °F 33.8 °F 87% 29.82 in 10.0 mi WNW 4.6 mph - N/A   Clear
4:09 AM 37.4 °F 32.8 °F 33.8 °F 87% 29.83 in 10.0 mi NW 5.8 mph - N/A   Clear
4:29 AM 37.4 °F 32.8 °F 33.8 °F 87% 29.83 in 10.0 mi NW 5.8 mph - N/A   Clear
4:50 AM 37.4 °F 31.4 °F 32.0 °F 81% 29.83 in 10.0 mi NW 8.1 mph - N/A   Scattered Clouds
5:09 AM 37.4 °F 31.4 °F 30.2 °F 75% 29.84 in 10.0 mi NW 8.1 mph - N/A   Scattered Clouds
5:30 AM 37.4 °F 31.4 °F 30.2 °F 75% 29.84 in 10.0 mi NW 8.1 mph - N/A   Scattered Clouds
5:49 AM 37.4 °F 30.8 °F 30.2 °F 75% 29.85 in 10.0 mi NNW 9.2 mph - N/A   Clear
6:09 AM 35.6 °F 28.6 °F 28.4 °F 75% 29.86 in 10.0 mi NNW 9.2 mph - N/A   Clear
6:30 AM 35.6 °F 28.6 °F 28.4 °F 75% 29.87 in 10.0 mi NW 9.2 mph - N/A   Clear
6:49 AM 35.6 °F 29.2 °F 28.4 °F 75% 29.88 in 10.0 mi NW 8.1 mph - N/A   Clear
7:09 AM 35.6 °F 27.5 °F 28.4 °F 75% 29.88 in 10.0 mi NW 11.5 mph - N/A   Clear
7:30 AM 35.6 °F 29.9 °F 28.4 °F 75% 29.89 in 10.0 mi NW 6.9 mph - N/A   Clear
7:49 AM 35.6 °F 29.9 °F 28.4 °F 75% 29.90 in 10.0 mi NW 6.9 mph - N/A   Clear
8:09 AM 37.4 °F 30.3 °F 28.4 °F 70% 29.90 in 10.0 mi NW 10.4 mph 16.1 mph N/A   Clear
8:30 AM 37.4 °F 31.4 °F 30.2 °F 75% 29.91 in 10.0 mi NW 8.1 mph 18.4 mph N/A   Clear
8:49 AM 37.4 °F 30.3 °F 30.2 °F 75% 29.92 in 10.0 mi NW 10.4 mph 19.6 mph N/A   Clear
9:09 AM 37.4 °F 29.8 °F 30.2 °F 75% 29.92 in 10.0 mi NNW 11.5 mph 18.4 mph N/A   Clear
9:30 AM 39.2 °F 31.2 °F 32.0 °F 75% 29.93 in 10.0 mi NW 13.8 mph 19.6 mph N/A   Scattered Clouds
9:49 AM 39.2 °F 30.8 °F 32.0 °F 75% 29.93 in 10.0 mi NNW 15.0 mph 24.2 mph N/A   Scattered Clouds
10:09 AM 41.0 °F 34.3 °F 33.8 °F 76% 29.94 in 10.0 mi NW 11.5 mph 23.0 mph N/A   Scattered Clouds
10:30 AM 41.0 °F 33.5 °F 33.8 °F 76% 29.94 in 10.0 mi NW 13.8 mph 18.4 mph N/A   Scattered Clouds
10:49 AM 42.8 °F 36.2 °F 33.8 °F 70% 29.95 in 10.0 mi NW 12.7 mph 23.0 mph N/A   Mostly Cloudy
11:09 AM 42.8 °F 35.8 °F 33.8 °F 70% 29.95 in 10.0 mi NW 13.8 mph 18.4 mph N/A   Scattered Clouds
11:29 AM 44.6 °F 37.4 °F 35.6 °F 71% 29.95 in 10.0 mi NW 16.1 mph 20.7 mph N/A   Scattered Clouds
11:49 AM 44.6 °F 37.8 °F 35.6 °F 71% 29.96 in 10.0 mi NW 15.0 mph 23.0 mph N/A   Scattered Clouds
12:09 PM 46.4 °F 40.7 °F 35.6 °F 66% 29.96 in 10.0 mi NNW 12.7 mph 24.2 mph N/A   Scattered Clouds
12:29 PM 46.4 °F 40.4 °F 35.6 °F 66% 29.95 in 10.0 mi NW 13.8 mph 21.9 mph N/A   Scattered Clouds
12:49 PM 48.2 °F - 35.6 °F 62% 29.96 in 10.0 mi NNW 15.0 mph 20.7 mph N/A   Scattered Clouds
1:09 PM 48.2 °F - 35.6 °F 62% 29.96 in 10.0 mi NNW 15.0 mph 20.7 mph N/A   Scattered Clouds
1:29 PM 48.2 °F - 35.6 °F 62% 29.96 in 10.0 mi NW 12.7 mph 23.0 mph N/A   Scattered Clouds
1:49 PM 48.2 °F - 35.6 °F 62% 29.97 in 10.0 mi NW 10.4 mph 23.0 mph N/A   Scattered Clouds
2:09 PM 48.2 °F - 35.6 °F 62% 29.97 in 10.0 mi NW 12.7 mph 21.9 mph N/A   Mostly Cloudy
2:29 PM 51.8 °F - 35.6 °F 54% 29.96 in 10.0 mi NW 13.8 mph 21.9 mph N/A   Scattered Clouds
2:49 PM 50.0 °F - 33.8 °F 54% 29.96 in 10.0 mi NNW 12.7 mph 17.3 mph N/A   Scattered Clouds
3:09 PM 50.0 °F - 33.8 °F 54% 29.96 in 10.0 mi NW 11.5 mph 20.7 mph N/A   Scattered Clouds
3:29 PM 50.0 °F - 33.8 °F 54% 29.96 in 10.0 mi NW 10.4 mph 20.7 mph N/A   Mostly Cloudy
3:49 PM 51.8 °F - 33.8 °F 50% 29.97 in 10.0 mi NNW 15.0 mph 19.6 mph N/A   Scattered Clouds
4:09 PM 51.8 °F - 32.0 °F 47% 29.97 in 10.0 mi NW 10.4 mph 17.3 mph N/A   Scattered Clouds
4:29 PM 50.0 °F - 30.2 °F 47% 29.97 in 10.0 mi NW 12.7 mph 23.0 mph N/A   Scattered Clouds
4:50 PM 51.8 °F - 30.2 °F 44% 29.97 in 10.0 mi NW 10.4 mph 17.3 mph N/A   Scattered Clouds
5:09 PM 51.8 °F - 30.2 °F 44% 29.97 in 10.0 mi NW 12.7 mph 16.1 mph N/A   Scattered Clouds
5:29 PM 51.8 °F - 30.2 °F 44% 29.97 in 10.0 mi NW 8.1 mph 16.1 mph N/A   Clear
5:50 PM 50.0 °F - 30.2 °F 47% 29.98 in 10.0 mi NW 10.4 mph 17.3 mph N/A   Clear
6:09 PM 48.2 °F - 30.2 °F 50% 29.98 in 10.0 mi NNW 11.5 mph 17.3 mph N/A   Scattered Clouds
6:29 PM 48.2 °F - 30.2 °F 50% 29.99 in 10.0 mi NW 9.2 mph - N/A   Scattered Clouds
6:50 PM 48.2 °F - 30.2 °F 50% 29.99 in 10.0 mi NW 9.2 mph - N/A   Scattered Clouds
7:09 PM 46.4 °F 42.9 °F 30.2 °F 53% 29.99 in 10.0 mi NW 6.9 mph - N/A   Clear
7:49 PM 44.6 °F 42.2 °F 30.2 °F 57% 30.00 in 10.0 mi NW 4.6 mph - N/A   Clear
8:09 PM 44.6 °F 43.1 °F 30.2 °F 57% 30.00 in 10.0 mi WNW 3.5 mph - N/A   Clear
8:29 PM 42.8 °F 40.1 °F 30.2 °F 61% 30.01 in 10.0 mi WNW 4.6 mph - N/A   Clear
8:49 PM 42.8 °F 40.1 °F 32.0 °F 66% 30.01 in 10.0 mi WNW 4.6 mph - N/A   Clear
9:10 PM 41.0 °F 38.0 °F 30.2 °F 65% 30.01 in 10.0 mi WNW 4.6 mph - N/A   Clear
9:29 PM 39.2 °F 35.9 °F 30.2 °F 70% 30.02 in 10.0 mi West 4.6 mph - N/A   Clear
9:49 PM 39.2 °F - 30.2 °F 70% 30.01 in 10.0 mi Calm Calm - N/A   Clear
10:10 PM 37.4 °F 34.9 °F 30.2 °F 75% 30.01 in 10.0 mi WSW 3.5 mph - N/A   Clear
10:29 PM 37.4 °F 34.9 °F 30.2 °F 75% 30.01 in 10.0 mi West 3.5 mph - N/A   Clear
10:49 PM 37.4 °F - 32.0 °F 81% 30.00 in 10.0 mi Calm Calm - N/A   Clear
11:10 PM 37.4 °F - 33.8 °F 87% 30.00 in 10.0 mi Calm Calm - N/A   Clear
11:29 PM 37.4 °F 34.9 °F 33.8 °F 87% 29.99 in 10.0 mi SW 3.5 mph - N/A   Clear
11:49 PM 35.6 °F - 33.8 °F 93% 29.99 in 10.0 mi Calm Calm - N/A   Clear